Weather in C么n 膼岷

Vietnam     8掳39鈥06鈥砃   106掳41鈥47鈥矱
temp.,
掳C
wind,
m/s
gust,
m/s
humid.,
%
clouds,
%
prec.,
mm/h
press.,
hPa
HPBL,
m
15 april, thu
thu1501:00+28ssw337698 0.0 1010513
04:00+28sw1276100 0.0 1010484
07:00+27s227787 1.8 1011204
10:00+28s117589 0.0 1012416
13:00+28sw1173100 0.0 1010537
16:00+28s337371 0.0 1008615
19:00+28se55755 0.0 1009477
22:00+28s44746 0.0 1010621
16 april, fri
fri1601:00+28s337453 0.0 1010662
04:00+28sse337499 0.1 1010596
07:00+28se3374100 0.1 1011606
10:00+28se227394 0.0 1012611
13:00+28sse227198 0.0 1010731
16:00+28sse3372100 0.0 1008778
19:00+28se447452 0.0 1010708
22:00+28sse337358 0.0 1012685
17 april, sat
sat1701:00+28se337480 0.0 1011676
04:00+27se337495 0.0 1010660
07:00+27ese22746 0.0 1012634
10:00+27e327464 0.0 1014721
13:00+27e227462 0.0 1011595
16:00+28e327384 0.1 1010625
19:00+28e3371100 0.1 1011551
22:00+28se22695 0.0 1013531
18 april, sun
sun1801:00+27e336666 0.0 1012612
04:00+27ene3363100 0.0 1012629
07:00+27e3363100 0.0 1013613
10:00+27e3363100 0.0 1013664
13:00+28e336294 0.0 1011690
16:00+28e336311 0.0 1009730
19:00+28ese336498 0.0 1011614
22:00+28sse446515 0.0 1012502
19 april, mon
mon1901:00+27sse22645 0.0 1010459
04:00+27s11645 0.0 1009478
07:00+27ssw11632 0.0 1011453
10:00+28wsw116113 0.0 1012523
13:00+28sw22591 0.0 1010631
16:00+28ssw23611 0.0 1009607
19:00+28s33660 0.0 1010470
22:00+28ssw4470100 0.0 1011543